Theta_e
319 317 315 311 299 297 293 295 298 298 299 301 301 302 302 303 302 298 313 325 326 331 336 344 347 350 351 350 349 349 349 348 347 347 345 344 341 338 337 338 339 341 342 340 337 335 333 333 333
315 315 311 303 294 289 289 296 298 299 301 301 302 302 302 302 306 310 316 322 328 333 338 343 345 349 350 349 349 350 350 348 347 347 345 342 339 336 335 335 336 338 337 336 334 330 327 327 328
314 311 306 297 290 288 289 296 298 300 300 302 302 303 303 304 307 310 316 325 330 333 337 340 344 348 350 349 348 349 349 348 347 345 341 338 337 335 334 332 335 336 334 330 327 323 322 322 322
309 305 300 296 292 295 295 299 298 299 300 300 302 300 302 307 309 311 316 324 329 332 335 339 344 348 349 348 349 348 348 347 345 340 338 337 335 333 330 332 331 329 327 325 322 321 321 320 320
304 300 292 291 291 294 296 298 299 298 299 300 301 300 300 307 307 310 318 324 328 329 331 336 341 344 347 348 347 346 343 342 339 338 336 335 333 329 325 328 326 325 323 322 321 322 320 320 319
300 298 292 289 290 294 296 298 298 298 299 299 299 300 302 304 306 310 318 322 325 326 327 331 335 338 340 341 341 339 340 340 338 337 335 333 329 326 324 325 323 323 322 322 322 321 319 318 317
298 295 291 290 291 294 297 298 297 298 298 299 301 300 303 303 305 311 317 319 321 323 324 327 333 335 333 335 336 337 338 339 337 335 333 330 326 324 324 323 322 322 322 321 319 318 318 316 314
299 296 292 291 291 292 297 297 298 298 300 300 302 299 301 304 306 311 313 315 316 318 321 324 327 330 331 332 330 333 335 336 334 332 329 326 325 324 324 323 323 321 320 318 317 316 314 312 310
299 292 288 291 290 293 296 296 298 299 299 299 300 301 302 302 306 308 310 310 312 313 316 319 323 325 326 328 327 328 330 331 328 326 323 320 318 318 318 317 322 320 317 315 313 312 309 307 306
297 290 291 293 293 294 296 296 298 297 297 297 299 300 300 302 304 306 307 310 310 311 312 315 318 320 321 321 324 325 323 325 322 319 316 312 311 311 310 314 319 318 315 312 310 307 302 296 296
296 293 294 295 294 296 296 295 298 296 296 298 298 301 299 299 302 304 306 309 311 313 312 311 314 316 317 318 318 318 318 317 315 313 309 308 306 308 309 309 307 306 304 302 300 296 295 295 295
294 296 296 298 297 296 295 297 296 296 302 302 300 302 299 298 299 302 305 307 308 308 310 311 311 313 313 314 314 314 313 312 310 309 305 304 303 304 304 303 302 301 299 296 295 295 294 294 293
294 295 297 298 297 297 296 296 296 295 299 301 298 297 298 298 299 301 305 307 306 306 308 309 310 312 312 310 312 311 311 309 308 305 303 301 301 302 301 299 296 295 294 294 293 293 293 293 292
294 295 295 296 296 296 296 297 296 297 299 298 297 298 297 297 299 299 299 302 303 305 306 307 308 310 310 310 309 310 309 308 305 303 301 299 299 300 299 295 293 293 293 293 293 292 292 292 292
294 292 292 292 294 294 295 293 291 299 296 297 297 297 296 297 297 298 301 301 303 304 305 305 307 309 308 309 308 309 307 304 304 302 300 298 297 297 297 294 292 292 292 292 291 291 291 291 290
289 289 286 290 292 292 294 288 295 295 294 295 295 295 295 297 297 299 300 300 301 302 302 304 305 306 307 308 308 308 306 304 303 301 299 297 297 296 294 293 292 291 291 291 291 290 289 290 290
285 283 283 287 292 291 292 288 294 294 293 294 295 297 298 299 300 298 299 300 300 301 300 301 303 304 305 307 307 306 304 303 302 300 298 297 296 295 294 293 292 291 290 290 290 288 289 289 289
283 281 283 284 290 288 288 289 293 294 293 294 296 297 298 299 300 301 300 299 299 299 300 300 300 303 303 304 304 303 301 302 300 299 297 296 296 294 294 293 291 290 289 289 289 288 288 289 288
284 283 282 285 290 287 289 289 291 294 293 294 296 296 296 297 300 301 300 300 298 298 298 297 296 299 300 301 299 298 297 298 297 298 297 296 296 294 293 292 291 289 289 289 289 288 287 287 287
286 285 284 288 290 286 286 287 292 293 294 295 296 296 295 296 297 298 298 298 297 298 297 297 296 297 298 300 300 301 300 299 298 297 296 296 295 294 293 292 290 289 288 288 288 287 286 287 286
284 283 285 284 286 286 285 285 287 291 292 293 295 296 296 296 296 297 296 297 297 296 296 296 297 296 297 299 299 292 294 293 294 294 293 293 294 293 293 292 291 289 289 288 287 288 288 286 285
284 287 287 285 283 280 285 279 287 293 292 293 292 292 293 293 294 295 295 296 296 296 297 296 296 296 296 297 296 295 296 293 294 295 294 293 293 292 293 291 290 289 289 288 287 287 288 287 285
286 287 285 284 282 281 281 279 283 286 289 290 292 294 294 295 294 294 294 295 295 296 296 295 295 295 296 295 296 295 295 296 294 295 293 293 292 292 291 290 289 289 288 288 287 286 286 287 286
287 285 284 282 281 276 282 281 282 285 287 289 291 293 292 293 293 293 293 293 295 294 294 294 294 294 294 294 295 294 294 295 291 292 291 291 291 290 290 289 289 288 287 287 286 287 287 286 286
286 283 278 277 275 279 281 279 286 288 292 290 291 292 292 292 291 292 295 295 296 295 294 293 292 292 292 292 293 294 293 294 291 291 291 289 289 289 288 288 288 287 287 287 286 285 285 285 285
285 285 281 274 274 282 279 279 285 290 291 290 290 290 291 294 293 293 293 292 293 292 293 291 290 290 290 291 291 293 293 293 292 290 291 290 290 290 290 288 288 287 286 286 286 285 285 285 285
284 282 286 281 271 274 283 287 290 289 289 290 289 290 291 291 290 289 289 290 290 290 290 290 289 289 289 289 290 290 291 292 291 290 290 290 290 290 290 288 288 287 286 285 285 285 284 284 284
286 287 281 280 275 275 281 282 284 288 290 289 290 286 287 288 288 288 288 287 288 288 289 290 290 289 288 288 288 289 290 290 291 288 288 289 289 289 288 287 287 286 285 285 285 284 284 283 283
287 283 283 283 282 278 277 281 288 288 286 285 287 288 286 286 286 286 287 288 288 288 288 288 288 288 288 289 289 288 288 288 289 287 287 288 288 287 286 286 286 285 284 284 284 284 283 282 282
288 287 287 282 280 282 282 281 293 290 287 285 284 284 284 284 284 285 285 286 287 286 287 287 287 288 287 287 288 287 288 287 287 287 287 287 286 286 286 286 285 285 284 284 283 283 282 282 281
Wind_Speed
3 4 2 5 4 4 3 5 2 3 2 2 7 5 5 2 5 3 2 11 7 14 11 12 12 13 15 14 13 12 12 12 11 12 11 11 9 5 5 5 7 7 9 10 9 8 8 8 8
2 1 5 3 4 2 5 4 4 3 2 3 1 2 1 5 3 3 3 12 8 13 11 10 12 12 14 14 13 13 13 13 12 12 12 12 8 6 5 5 5 6 7 8 9 8 8 7 8
3 4 4 4 3 4 4 4 3 1 3 2 2 2 2 4 2 2 1 13 9 12 11 9 13 14 14 14 12 12 13 14 15 15 9 7 8 7 6 5 6 7 8 8 8 7 7 7 8
3 4 4 4 4 7 6 2 3 3 2 3 2 5 4 3 3 2 5 11 11 10 8 9 11 15 16 15 15 14 13 14 12 7 7 7 7 7 7 8 9 8 8 8 8 8 9 9 9
4 3 4 2 5 6 5 4 3 2 2 2 3 3 5 1 2 2 7 10 12 9 7 6 8 8 14 16 16 15 9 6 8 10 9 9 9 9 8 8 9 9 9 9 9 10 9 10 10
4 3 3 2 5 5 6 5 2 2 2 2 3 2 6 2 3 4 6 11 10 11 7 6 7 7 8 9 8 13 12 11 11 11 12 11 11 10 10 10 9 9 10 10 10 11 10 10 11
6 4 4 3 4 6 4 2 3 3 2 5 3 2 5 3 3 4 7 8 8 8 9 8 7 7 9 9 8 11 12 12 12 13 13 12 12 11 11 11 11 11 10 10 11 11 11 10 11
5 4 3 4 3 7 2 2 2 4 4 2 4 5 5 1 3 4 3 5 6 7 9 9 9 8 7 7 9 10 11 11 12 12 11 10 10 10 9 9 11 11 10 10 10 11 11 11 11
3 4 2 5 6 5 2 1 3 1 2 3 7 5 3 3 5 5 3 3 5 7 9 8 9 8 8 7 6 8 9 11 11 10 11 9 5 7 6 6 9 10 10 10 9 10 10 11 11
4 4 9 7 6 5 3 5 3 2 5 6 5 7 4 5 5 8 9 12 12 13 12 10 9 9 7 6 6 7 6 6 6 6 7 6 6 5 5 5 8 11 10 10 10 10 9 6 4
5 7 6 6 7 3 4 3 4 5 7 12 10 8 6 6 9 11 12 13 18 13 8 12 10 9 10 8 6 4 4 5 6 9 8 7 5 4 4 3 3 4 8 4 6 5 3 5 3
3 8 6 4 4 2 5 3 4 9 17 11 10 7 5 9 13 15 16 17 14 12 13 12 13 11 10 6 7 7 7 6 6 8 10 7 5 6 6 4 5 4 3 5 4 3 4 5 4
4 5 5 6 6 8 4 13 7 12 19 11 7 8 12 10 13 12 14 11 10 13 13 14 14 13 11 11 8 8 9 8 8 9 9 8 8 8 6 6 5 5 5 4 4 4 4 4 4
4 4 7 7 9 6 7 16 6 12 11 11 8 14 12 12 16 7 11 17 15 14 15 14 17 16 14 14 13 10 9 9 9 8 9 11 8 8 8 7 7 6 6 5 5 5 4 3 4
1 7 7 7 5 8 7 11 13 18 2 13 11 13 9 13 8 16 16 17 17 16 14 17 17 16 17 18 14 11 10 9 9 9 12 12 11 11 11 8 8 8 7 8 5 4 3 3 3
3 0 4 2 5 2 7 11 21 2 5 12 13 10 10 12 11 13 14 13 10 11 16 15 14 18 19 17 13 11 10 11 10 9 9 13 12 13 10 8 8 8 7 7 6 6 4 3 4
2 6 7 10 8 4 7 8 13 4 5 12 13 16 15 18 18 11 11 11 11 14 14 15 16 19 20 17 13 13 13 12 11 10 10 14 14 13 11 9 8 10 7 7 8 5 4 5 4
8 6 6 5 6 5 6 17 14 17 11 21 22 21 19 17 21 12 8 8 10 12 13 13 13 17 17 11 10 9 9 11 10 12 13 17 14 15 12 9 9 9 8 7 7 6 4 3 5
2 5 7 7 10 6 18 18 19 17 15 25 22 21 16 13 16 12 6 6 7 7 10 14 15 16 12 12 12 11 15 14 12 12 16 16 14 16 16 11 11 11 11 10 10 5 6 3 5
8 10 12 9 11 4 10 21 19 26 23 21 22 22 8 9 9 7 5 5 6 6 10 11 14 14 15 12 11 7 10 11 11 10 11 14 16 16 14 14 13 14 10 11 11 7 5 3 7
5 6 10 11 7 5 8 9 5 7 5 9 18 12 12 12 13 8 6 5 4 7 9 11 12 14 15 16 8 2 3 2 8 10 11 14 16 16 17 17 14 14 12 12 13 10 8 5 4
7 10 11 7 3 4 5 11 4 19 15 14 8 7 9 7 6 4 7 8 6 8 8 8 9 12 12 14 13 18 14 12 11 12 10 12 16 16 16 15 14 15 11 12 12 10 9 6 6
11 1 4 4 4 2 1 5 5 1 8 8 7 7 4 2 6 7 7 7 7 6 4 5 6 9 10 13 14 11 15 11 3 7 11 13 13 16 15 15 14 13 10 11 13 12 11 7 6
2 1 3 4 2 3 12 10 5 4 3 5 3 3 7 10 8 7 6 8 7 7 6 5 6 8 8 12 15 16 16 13 6 9 11 10 9 10 14 16 14 14 13 13 11 11 12 11 6
3 6 5 5 1 9 2 3 6 5 5 1 9 12 10 7 8 9 16 16 16 17 15 10 4 6 5 8 11 14 14 14 12 11 10 12 11 12 16 17 16 14 14 14 13 12 12 11 10
7 9 6 6 6 17 3 9 4 8 2 4 5 5 6 14 11 12 15 13 18 20 20 20 15 8 5 4 8 8 9 9 8 10 10 10 12 13 16 18 17 18 17 14 13 11 11 12 11
5 5 2 1 3 3 10 20 8 3 7 10 8 8 13 18 19 20 18 17 17 16 19 19 19 14 7 5 5 6 6 10 8 7 9 8 9 10 13 16 17 17 17 17 17 13 14 13 12
5 2 1 3 2 11 20 20 14 12 14 14 21 19 19 19 21 20 19 19 18 18 19 19 18 17 14 10 6 7 7 8 8 6 10 11 11 12 13 15 17 17 17 17 16 12 12 13 10
8 2 3 3 5 9 13 14 5 9 17 13 10 12 14 14 15 14 15 15 14 15 17 16 17 18 18 16 14 11 10 8 8 9 10 12 11 12 12 15 17 17 17 17 17 16 15 16 14
9 13 13 14 11 11 15 17 9 12 12 11 12 12 11 10 12 11 12 12 13 15 16 17 18 16 16 17 15 13 13 9 9 11 12 11 12 11 14 13 15 16 17 17 18 19 17 20 18
Wind_Direction
23 32 57 41 53 59 272 265 299 249 248 169 128 156 203 192 173 222 123 189 173 162 175 186 182 182 174 166 167 170 165 166 155 142 150 129 115 121 119 112 104 101 85 77 78 74 65 65 64
35 65 46 73 87 43 269 261 250 241 351 125 170 144 261 258 244 265 168 188 186 164 171 173 177 181 172 166 178 178 175 164 162 162 145 129 131 164 141 106 106 112 107 97 87 80 77 72 74
112 43 80 86 101 192 232 220 246 297 162 176 224 240 257 245 253 248 185 162 172 170 168 173 175 180 175 172 185 176 171 169 163 160 146 158 159 162 141 148 131 119 106 99 88 89 87 85 71
61 19 49 86 234 250 224 230 229 289 171 234 198 268 283 232 196 185 148 160 164 169 168 172 167 184 182 178 181 178 178 165 176 147 153 178 180 156 150 147 127 120 114 104 101 96 90 78 72
40 57 56 18 255 264 250 255 220 244 277 181 190 268 258 223 12 109 156 161 165 168 172 177 179 181 176 179 173 169 165 165 155 170 184 184 173 164 159 146 138 132 122 123 113 100 88 81 73
51 92 59 257 259 265 277 251 206 230 228 185 181 248 253 169 189 177 167 169 169 169 175 186 195 183 161 157 170 193 189 196 185 179 182 181 174 168 163 153 144 136 135 124 115 105 93 83 77
115 95 203 238 261 297 244 146 195 204 218 238 168 199 263 279 204 155 166 165 172 178 176 184 193 191 173 170 195 194 198 197 181 183 184 179 178 172 166 156 153 147 137 125 118 109 101 94 86
105 96 159 235 220 269 262 223 211 173 256 70 182 226 253 189 123 120 141 171 186 192 194 191 190 191 185 183 204 181 196 180 175 179 177 168 169 166 164 159 160 151 137 127 118 111 104 97 91
136 69 217 244 175 241 205 244 184 171 254 208 204 209 226 125 130 130 149 208 214 218 212 202 194 191 183 176 187 187 179 168 166 170 158 142 149 148 139 157 162 146 137 126 115 105 93 80 75
107 144 220 211 197 224 226 204 223 184 241 245 266 249 169 153 180 184 193 204 210 213 209 203 199 192 178 174 183 178 159 165 159 153 148 147 148 151 150 170 153 143 139 131 123 111 99 91 83
179 205 216 245 230 244 254 260 217 183 257 233 212 235 188 191 205 211 215 213 213 211 204 202 196 193 184 182 176 179 171 166 161 163 160 156 154 159 152 132 111 107 98 103 109 117 103 96 96
227 246 206 249 216 226 235 291 237 196 254 240 217 224 175 204 213 212 219 220 211 197 207 196 195 193 195 183 184 178 177 175 173 174 166 163 166 174 166 156 146 139 140 138 132 124 116 106 100
219 248 239 233 251 253 295 256 226 234 253 266 265 232 240 233 232 225 225 232 209 214 207 202 193 197 191 194 189 187 188 183 178 176 178 168 173 177 168 166 163 160 155 161 151 147 138 133 121
217 260 269 273 243 242 201 272 134 248 263 281 249 257 239 237 243 230 213 229 215 216 210 196 200 197 189 196 192 194 189 185 181 181 183 181 176 176 178 172 176 173 175 168 164 165 158 141 133
310 305 314 232 246 227 159 285 229 254 227 273 268 269 265 240 238 234 242 227 215 215 205 200 199 199 199 199 196 194 193 185 189 190 185 183 182 183 179 176 179 179 175 160 157 150 139 134 128
296 91 307 300 136 258 163 253 271 286 229 266 279 279 280 270 231 232 240 236 223 215 207 200 195 196 199 204 199 196 191 191 194 190 189 190 187 184 181 182 185 175 170 166 161 159 160 161 166
313 243 219 312 204 137 189 256 268 303 218 270 276 274 271 277 272 244 237 230 211 209 206 205 200 201 202 204 197 199 195 198 191 189 190 188 188 183 181 185 181 172 172 174 167 166 174 171 155
224 232 246 240 284 202 220 256 279 286 281 271 276 273 267 268 271 285 237 226 216 207 209 205 201 205 201 198 199 200 197 205 198 196 195 187 187 181 182 180 173 171 173 178 180 168 164 159 155
169 236 254 256 263 295 276 272 278 274 268 273 271 271 269 259 269 266 268 240 233 216 202 202 195 200 186 192 190 202 209 203 203 203 199 192 191 185 181 178 172 175 181 184 179 157 169 165 168
245 271 270 275 264 195 274 286 277 267 261 263 268 276 280 278 272 283 284 241 232 247 220 210 208 198 196 199 205 217 212 217 211 205 205 199 189 188 189 181 179 179 174 179 182 176 156 139 188
195 222 257 258 317 247 319 279 280 289 258 259 261 269 274 263 292 319 308 272 268 264 241 227 219 207 199 199 190 146 124 172 196 201 201 199 193 186 187 187 183 181 182 184 182 187 174 156 193
264 223 250 271 11 242 27 291 157 279 280 259 301 290 277 307 296 328 353 337 310 257 253 228 210 205 206 200 199 202 208 210 213 205 202 195 193 192 191 189 187 185 186 186 186 182 180 153 164
232 132 208 194 201 353 269 264 268 45 264 291 285 286 351 313 21 3 330 300 289 286 313 258 227 218 206 200 208 218 223 219 177 198 190 193 193 194 192 188 184 185 187 193 186 179 188 185 163
108 38 53 60 123 267 210 190 316 176 230 314 283 293 62 17 5 338 291 271 325 2 343 322 250 231 194 196 210 209 219 219 193 180 182 187 187 195 192 188 188 184 184 187 190 193 195 193 184
113 61 311 313 346 251 330 229 232 236 305 177 356 344 359 3 348 340 348 350 354 357 356 344 312 305 230 210 216 224 221 212 200 189 193 180 186 193 198 188 185 188 190 186 181 186 194 194 199
178 174 182 256 277 290 193 244 210 209 236 133 91 10 328 351 358 354 356 357 1 359 355 359 352 342 310 255 244 243 238 233 223 201 198 196 196 202 194 194 192 190 188 185 184 188 194 193 193
171 186 219 259 95 289 266 277 270 291 77 42 34 9 359 16 18 18 23 22 11 12 11 0 359 345 331 280 270 250 239 236 236 214 202 202 200 198 198 199 196 190 189 188 187 192 191 192 192
171 155 35 18 196 255 276 282 269 321 11 20 25 31 16 12 14 7 9 9 5 7 6 7 9 2 345 325 285 267 247 242 240 208 206 206 200 193 189 195 198 193 190 186 188 194 195 193 197
306 260 218 253 214 250 265 267 92 75 67 58 16 25 25 14 9 5 4 3 4 4 3 2 3 1 356 354 339 301 275 251 236 222 218 212 195 190 191 194 196 197 192 190 192 193 185 195 194
209 235 238 241 233 219 235 245 329 85 83 51 42 34 35 22 5 5 0 358 359 2 1 356 352 355 353 347 342 333 304 271 253 243 230 210 201 196 193 197 203 197 197 193 196 193 190 192 194